STARLINK-11187, 60184

Orbit data source: Space-Track

STARLINK-11187, 60184 is a payload satellite owned by SpaceX/Seattle (US) in LEO that was launched on Wed, 03 Jul 2024 UTC via an FALCON 9 launch vehicle from the Air Force Eastern Test Range (AFETR). Payload-class satellites include a variety of spacecraft equipped with specific instruments for various scientific and technological missions. These include communications satellites like Starlink; space stations such as the ISS; scientific satellites like the Hubble; Earth observation satellites from companies like Planet Labs, Umbra, and HawkEye 360; GPS; miniature CubeSats for education and research; and military/defense satellites.

Loading next visibility...
Identifier
60184, 2024-124B
Orbit
LEO
Country
Flag of USUS
Related business
Manufacturer
SpaceX/Seattle
Mission
Operational Commercial Communications
Bus & Motor
STARLINK V2MD, Unknown motor
Mass
960 kg wet, ~910 kg dry
Launch date (UTC)
2024-07-03 (1 year ago)
Launch vehicle
FALCON 9
Launch site
Air Force Eastern Test Range (AFETR)
Object type
Payload
Rocket body
Debris
Shape & HBR
Box + 2 Pan, 14.5 m
Radar Cross Section
36.964 m², Large (>1 m²)

Expand to show TLE details & history
Last TLE update: 23 hours ago

TLE from 23 hours ago
0 STARLINK-11187
1 60184U 24124B   25257.43820857  .00000280  00000-0  71698-5 0  9996
2 60184  53.1584 309.9769 0001233  73.1301 286.9853 15.69698593 68853
Epoch: 2025-09-14T10:31Z
TLE epoch observation values (Epoch: 2025-09-14T10:31:01.22Z)
Latitude
0.00006°
Longitude
158.56465°
Altitude
360.432 km
Speed
7.694 km/s
True Right ascension
20h 39m 54s
True Declination
0° 00' 00"
Sunlit
Object was in full shadow at epoch
Visualization orbit readout
Latitude
Unknown
Longitude
Unknown
Altitude
Unknown
Speed
Unknown
Apparent Right ascension
Unknown
Apparent Declination
Unknown
Sunlit
N/A
Visualization observer readout
Local Sidereal Time
02:06:38
Azimuth
Unknown
Elevation
Unknown
Doppler factor
Unknown
Orbital elements
Apogee altitude
360.851 km
Perigee altitude
359.19 km
Semi-major axis
6,738.157 km
Eccentricity
0.00012
Inclination
53.1584°
RAAN
309.9769°
Arg. of periapsis
73.1301°
True anomaly
286.97179°
Mean anomaly
286.9853°
Eccentric anomaly
286.97854°
Mean motion
3.92402 °/min
Orbital period
91.74 mins
BSTAR
0.0000071698
Loading maneuver chart data...
Computing Atmospheric mass density...
Loading historical data...
Loading historical data...
Loading historical data...
Loading historical data...
Loading historical data...
Loading historical data...
Loading historical data...

Documentation

Showing up to 5 results
|